| time (UTC) | temp F | wind direction | speed MPH | gust MPH | rain 1hr in | rain 24hr in | rain mn in | humidity % | barometer mb |
| 20260510194558 | 47 | 211 | 3.0 | 5.0 | 0.00 | 0.00 | 0.00 | 49 | 1007.9 |
| 20260510194034 | 47 | 210 | 3.0 | 5.0 | 0.00 | 0.00 | 0.00 | 47 | 1008.0 |
| 20260510193534 | 47 | 218 | 3.0 | 6.0 | 0.00 | 0.00 | 0.00 | 49 | 1008.0 |
| 20260510193045 | 47 | 212 | 3.0 | 7.0 | 0.00 | 0.00 | 0.00 | 48 | 1008.0 |
| 20260510192533 | 48 | 207 | 4.0 | 8.0 | 0.00 | 0.00 | 0.00 | 49 | 1008.0 |
| 20260510192033 | 48 | 222 | 3.0 | 8.0 | 0.00 | 0.00 | 0.00 | 49 | 1008.0 |
| 20260510191553 | 48 | 222 | 4.0 | 8.0 | 0.00 | 0.00 | 0.00 | 48 | 1008.0 |
| 20260510191031 | 48 | 203 | 4.0 | 9.0 | 0.00 | 0.00 | 0.00 | 47 | 1008.1 |
| 20260510190533 | 49 | 222 | 3.0 | 9.0 | 0.00 | 0.00 | 0.00 | 47 | 1008.1 |
| 20260510190100 | 49 | 238 | 4.0 | 7.0 | 0.00 | 0.00 | 0.00 | 46 | 1008.1 |
| 20260510185533 | 49 | 236 | 3.0 | 9.0 | 0.00 | 0.00 | 0.00 | 45 | 1008.1 |
| 20260510185035 | 49 | 250 | 5.0 | 9.0 | 0.00 | 0.00 | 0.00 | 45 | 1008.1 |
| 20260510184539 | 49 | 238 | 3.0 | 9.0 | 0.00 | 0.00 | 0.00 | 45 | 1008.2 |
| 20260510184034 | 49 | 229 | 3.0 | 9.0 | 0.00 | 0.00 | 0.00 | 46 | 1008.2 |
| 20260510183534 | 49 | 235 | 4.0 | 10.0 | 0.00 | 0.00 | 0.00 | 44 | 1008.1 |
| 20260510183042 | 49 | 232 | 2.0 | 10.0 | 0.00 | 0.00 | 0.00 | 44 | 1008.2 |
| 20260510182535 | 50 | 230 | 4.0 | 12.0 | 0.00 | 0.00 | 0.00 | 44 | 1008.1 |
| 20260510182033 | 50 | 229 | 4.0 | 14.0 | 0.00 | 0.00 | 0.00 | 44 | 1008.2 |
| 20260510181545 | 50 | 233 | 7.0 | 14.0 | 0.00 | 0.00 | 0.00 | 43 | 1008.2 |
| 20260510181034 | 50 | 250 | 5.0 | 12.0 | 0.00 | 0.00 | 0.00 | 42 | 1008.2 |
| 20260510180534 | 50 | 234 | 6.0 | 12.0 | 0.00 | 0.00 | 0.00 | 44 | 1008.3 |
| 20260510180052 | 51 | 231 | 7.0 | 15.0 | 0.00 | 0.00 | 0.00 | 44 | 1008.2 |
| 20260510175533 | 51 | 222 | 5.0 | 15.0 | 0.00 | 0.00 | 0.00 | 43 | 1008.2 |
| 20260510175033 | 51 | 233 | 8.0 | 15.0 | 0.00 | 0.00 | 0.00 | 42 | 1008.2 |
| 20260510174546 | 51 | 242 | 7.0 | 11.0 | 0.00 | 0.00 | 0.00 | 42 | 1008.3 |
| 20260510174034 | 51 | 236 | 6.0 | 11.0 | 0.00 | 0.00 | 0.00 | 43 | 1008.2 |
| 20260510173533 | 52 | 245 | 5.0 | 12.0 | 0.00 | 0.00 | 0.00 | 41 | 1008.3 |
| 20260510173047 | 52 | 241 | 6.0 | 12.0 | 0.00 | 0.00 | 0.00 | 42 | 1008.3 |
| 20260510172537 | 53 | 277 | 7.0 | 12.0 | 0.00 | 0.00 | 0.00 | 41 | 1008.3 |
| 20260510172031 | 53 | 243 | 4.0 | 10.0 | 0.00 | 0.00 | 0.00 | 42 | 1008.3 |
| 20260510171544 | 53 | 228 | 5.0 | 10.0 | 0.00 | 0.00 | 0.00 | 42 | 1008.3 |
| 20260510171033 | 53 | 268 | 3.0 | 8.0 | 0.00 | 0.00 | 0.00 | 43 | 1008.3 |
| 20260510170536 | 53 | 263 | 3.0 | 11.0 | 0.00 | 0.00 | 0.00 | 41 | 1008.3 |
| 20260510170042 | 53 | 268 | 5.0 | 12.0 | 0.00 | 0.00 | 0.00 | 40 | 1008.5 |
| 20260510165533 | 53 | 264 | 7.0 | 12.0 | 0.00 | 0.00 | 0.00 | 40 | 1008.5 |
| 20260510165033 | 54 | 244 | 7.0 | 13.0 | 0.00 | 0.00 | 0.00 | 39 | 1008.5 |
| 20260510164603 | 54 | 243 | 7.0 | 13.0 | 0.00 | 0.00 | 0.00 | 39 | 1008.6 |
| 20260510164032 | 54 | 226 | 6.0 | 12.0 | 0.00 | 0.00 | 0.00 | 39 | 1008.6 |
| 20260510163534 | 55 | 234 | 4.0 | 12.0 | 0.00 | 0.00 | 0.00 | 40 | 1008.7 |
| 20260510163107 | 55 | 216 | 7.0 | 12.0 | 0.00 | 0.00 | 0.00 | 40 | 1008.8 |
| 20260510162532 | 55 | 242 | 5.0 | 12.0 | 0.00 | 0.00 | 0.00 | 40 | 1008.8 |
| 20260510162033 | 55 | 245 | 5.0 | 12.0 | 0.00 | 0.00 | 0.00 | 39 | 1008.8 |
| 20260510161541 | 56 | 235 | 7.0 | 14.0 | 0.00 | 0.00 | 0.00 | 37 | 1008.8 |
| 20260510161032 | 57 | 250 | 8.0 | 14.0 | 0.00 | 0.00 | 0.00 | 36 | 1009.0 |
| 20260510160534 | 57 | 257 | 6.0 | 13.0 | 0.00 | 0.00 | 0.00 | 38 | 1009.0 |
| 20260510160040 | 57 | 251 | 9.0 | 14.0 | 0.00 | 0.00 | 0.00 | 37 | 1009.1 |
| 20260510155533 | 57 | 263 | 7.0 | 14.0 | 0.00 | 0.00 | 0.00 | 38 | 1009.0 |
| 20260510155034 | 58 | 258 | 8.0 | 17.0 | 0.00 | 0.00 | 0.00 | 36 | 1009.1 |
| 20260510154552 | 57 | 259 | 7.0 | 17.0 | 0.00 | 0.00 | 0.00 | 37 | 1009.0 |
| 20260510154034 | 58 | 231 | 10.0 | 17.0 | 0.00 | 0.00 | 0.00 | 35 | 1009.1 |
| 20260510153534 | 58 | 248 | 7.0 | 16.0 | 0.00 | 0.00 | 0.00 | 35 | 1009.2 |
| 20260510153100 | 58 | 233 | 9.0 | 16.0 | 0.00 | 0.00 | 0.00 | 37 | 1009.1 |
| 20260510152533 | 59 | 251 | 10.0 | 14.0 | 0.00 | 0.00 | 0.00 | 37 | 1009.2 |
| 20260510152032 | 59 | 264 | 8.0 | 14.0 | 0.00 | 0.00 | 0.00 | 35 | 1009.2 |
| 20260510151551 | 59 | 262 | 8.0 | 15.0 | 0.00 | 0.00 | 0.00 | 35 | 1009.3 |
| 20260510151033 | 59 | 249 | 9.0 | 15.0 | 0.00 | 0.00 | 0.00 | 36 | 1009.4 |
| 20260510150535 | 59 | 263 | 9.0 | 15.0 | 0.00 | 0.00 | 0.00 | 35 | 1009.5 |
| 20260510150046 | 60 | 266 | 7.0 | 15.0 | 0.00 | 0.00 | 0.00 | 34 | 1009.5 |
| 20260510145535 | 60 | 251 | 10.0 | 15.0 | 0.00 | 0.00 | 0.00 | 32 | 1009.5 |
| 20260510145033 | 60 | 276 | 5.0 | 16.0 | 0.00 | 0.00 | 0.00 | 33 | 1009.6 |
| 20260510144545 | 60 | 229 | 8.0 | 16.0 | 0.00 | 0.00 | 0.00 | 32 | 1009.8 |
| 20260510144035 | 61 | 236 | 7.0 | 14.0 | 0.00 | 0.00 | 0.00 | 31 | 1009.8 |
| 20260510143534 | 61 | 277 | 8.0 | 14.0 | 0.00 | 0.00 | 0.00 | 31 | 1009.9 |
| 20260510143102 | 62 | 230 | 5.0 | 14.0 | 0.00 | 0.00 | 0.00 | 30 | 1009.8 |
| 20260510142534 | 61 | 234 | 7.0 | 16.0 | 0.00 | 0.00 | 0.00 | 29 | 1009.9 |
| 20260510142035 | 61 | 228 | 8.0 | 16.0 | 0.00 | 0.00 | 0.00 | 27 | 1010.1 |
| 20260510141548 | 61 | 199 | 6.0 | 18.0 | 0.00 | 0.00 | 0.00 | 30 | 1010.0 |
| 20260510141035 | 61 | 184 | 9.0 | 26.0 | 0.00 | 0.00 | 0.00 | 31 | 1010.2 |
| 20260510140534 | 61 | 157 | 15.0 | 26.0 | 0.00 | 0.00 | 0.00 | 27 | 1010.4 |
| 20260510140048 | 61 | 177 | 12.0 | 26.0 | 0.00 | 0.00 | 0.00 | 27 | 1010.1 |
| 20260510135535 | 61 | 170 | 9.0 | 17.0 | 0.00 | 0.00 | 0.00 | 29 | 1010.4 |
| 20260510135035 | 60 | 149 | 9.0 | 22.0 | 0.00 | 0.00 | 0.00 | 30 | 1010.5 |
| 20260510134541 | 61 | 191 | 10.0 | 22.0 | 0.00 | 0.00 | 0.00 | 29 | 1010.5 |
| 20260510134034 | 60 | 205 | 10.0 | 20.0 | 0.00 | 0.00 | 0.00 | 28 | 1010.7 |
| 20260510133530 | 61 | 193 | 11.0 | 20.0 | 0.00 | 0.00 | 0.00 | 27 | 1010.6 |
| 20260510133051 | 61 | 181 | 12.0 | 20.0 | 0.00 | 0.00 | 0.00 | 29 | 1010.8 |
| 20260510132534 | 60 | 170 | 8.0 | 18.0 | 0.00 | 0.00 | 0.00 | 26 | 1010.8 |
| 20260510132035 | 61 | 162 | 9.0 | 16.0 | 0.00 | 0.00 | 0.00 | 26 | 1010.9 |
| 20260510131554 | 60 | 142 | 8.0 | 20.0 | 0.00 | 0.00 | 0.00 | 26 | 1010.9 |
| 20260510131033 | 60 | 203 | 10.0 | 20.0 | 0.00 | 0.00 | 0.00 | 28 | 1011.1 |
| 20260510130533 | 60 | 149 | 8.0 | 17.0 | 0.00 | 0.00 | 0.00 | 28 | 1011.3 |
| 20260510130050 | 60 | 211 | 8.0 | 19.0 | 0.00 | 0.00 | 0.00 | 33 | 1011.3 |
| 20260510125533 | 60 | 214 | 10.0 | 20.0 | 0.00 | 0.00 | 0.00 | 26 | 1011.4 |
| 20260510125035 | 60 | 198 | 10.0 | 20.0 | 0.00 | 0.00 | 0.00 | 28 | 1011.6 |
| 20260510124549 | 59 | 226 | 11.0 | 17.0 | 0.00 | 0.00 | 0.00 | 27 | 1011.6 |
| 20260510124034 | 60 | 194 | 10.0 | 28.0 | 0.00 | 0.00 | 0.00 | 29 | 1011.7 |
| 20260510123533 | 60 | 197 | 12.0 | 28.0 | 0.00 | 0.00 | 0.00 | 26 | 1011.8 |
| 20260510123042 | 60 | 212 | 13.0 | 25.0 | 0.00 | 0.00 | 0.00 | 28 | 1011.8 |
| 20260510122533 | 60 | 206 | 12.0 | 25.0 | 0.00 | 0.00 | 0.00 | 25 | 1012.0 |
| 20260510122033 | 61 | 189 | 8.0 | 17.0 | 0.00 | 0.00 | 0.00 | 29 | 1011.8 |
| 20260510121541 | 61 | 223 | 6.0 | 18.0 | 0.00 | 0.00 | 0.00 | 33 | 1012.0 |
| 20260510121034 | 60 | 229 | 8.0 | 18.0 | 0.00 | 0.00 | 0.00 | 31 | 1012.0 |
| 20260510120534 | 60 | 230 | 9.0 | 17.0 | 0.00 | 0.00 | 0.00 | 34 | 1012.2 |
| 20260510120040 | 60 | 209 | 9.0 | 19.0 | 0.00 | 0.00 | 0.00 | 29 | 1012.1 |
| 20260510115534 | 59 | 211 | 6.0 | 19.0 | 0.00 | 0.00 | 0.00 | 28 | 1012.2 |
| 20260510115033 | 59 | 173 | 11.0 | 18.0 | 0.00 | 0.00 | 0.00 | 25 | 1012.3 |
| 20260510114547 | 60 | 173 | 8.0 | 17.0 | 0.00 | 0.00 | 0.00 | 28 | 1012.4 |
| 20260510114033 | 60 | 225 | 6.0 | 16.0 | 0.00 | 0.00 | 0.00 | 26 | 1012.5 |
| 20260510113533 | 59 | 193 | 10.0 | 18.0 | 0.00 | 0.00 | 0.00 | 26 | 1012.6 |
| 20260510113044 | 59 | 161 | 9.0 | 21.0 | 0.00 | 0.00 | 0.00 | 25 | 1012.6 |
| 20260510112533 | 59 | 207 | 11.0 | 22.0 | 0.00 | 0.00 | 0.00 | 29 | 1012.7 |
| 20260510112031 | 59 | 179 | 10.0 | 22.0 | 0.00 | 0.00 | 0.00 | 26 | 1012.8 |
| 20260510111542 | 59 | 152 | 9.0 | 20.0 | 0.00 | 0.00 | 0.00 | 26 | 1012.9 |
| 20260510111033 | 60 | 163 | 12.0 | 20.0 | 0.00 | 0.00 | 0.00 | 28 | 1013.0 |
| 20260510110534 | 60 | 224 | 12.0 | 21.0 | 0.00 | 0.00 | 0.00 | 27 | 1013.0 |
| 20260510110042 | 59 | 261 | 8.0 | 21.0 | 0.00 | 0.00 | 0.00 | 24 | 1013.0 |
| 20260510105534 | 59 | 206 | 13.0 | 21.0 | 0.00 | 0.00 | 0.00 | 27 | 1013.2 |
| 20260510105035 | 59 | 157 | 11.0 | 17.0 | 0.00 | 0.00 | 0.00 | 27 | 1013.1 |
| 20260510104542 | 59 | 232 | 9.0 | 16.0 | 0.00 | 0.00 | 0.00 | 30 | 1013.1 |
| 20260510104032 | 59 | 236 | 8.0 | 22.0 | 0.00 | 0.00 | 0.00 | 28 | 1013.1 |
| 20260510103532 | 59 | 226 | 11.0 | 22.0 | 0.00 | 0.00 | 0.00 | 32 | 1013.3 |
| 20260510103047 | 59 | 217 | 6.0 | 19.0 | 0.00 | 0.00 | 0.00 | 29 | 1013.3 |
| 20260510102534 | 59 | 228 | 11.0 | 19.0 | 0.00 | 0.00 | 0.00 | 29 | 1013.4 |
| 20260510102034 | 59 | 182 | 9.0 | 19.0 | 0.00 | 0.00 | 0.00 | 26 | 1013.5 |
| 20260510101544 | 58 | 178 | 11.0 | 17.0 | 0.00 | 0.00 | 0.00 | 28 | 1013.6 |
| 20260510101033 | 59 | 182 | 9.0 | 16.0 | 0.00 | 0.00 | 0.00 | 27 | 1013.6 |
| 20260510100534 | 59 | 189 | 7.0 | 16.0 | 0.00 | 0.00 | 0.00 | 34 | 1013.7 |
| 20260510100108 | 58 | 182 | 8.0 | 17.0 | 0.00 | 0.00 | 0.00 | 28 | 1013.8 |
| 20260510095533 | 57 | 205 | 7.0 | 24.0 | 0.00 | 0.00 | 0.00 | 29 | 1013.9 |
| 20260510095033 | 58 | 164 | 8.0 | 23.0 | 0.00 | 0.00 | 0.00 | 30 | 1014.1 |
| 20260510094552 | 58 | 181 | 12.0 | 23.0 | 0.00 | 0.00 | 0.00 | 26 | 1014.1 |
| 20260510094032 | 57 | 193 | 8.0 | 18.0 | 0.00 | 0.00 | 0.00 | 31 | 1014.1 |
| 20260510093533 | 58 | 222 | 9.0 | 25.0 | 0.00 | 0.00 | 0.00 | 30 | 1014.2 |
| 20260510093038 | 57 | 202 | 12.0 | 25.0 | 0.00 | 0.00 | 0.00 | 33 | 1014.2 |
| 20260510092533 | 57 | 184 | 13.0 | 23.0 | 0.00 | 0.00 | 0.00 | 30 | 1014.3 |
| 20260510092036 | 57 | 168 | 9.0 | 21.0 | 0.00 | 0.00 | 0.00 | 27 | 1014.4 |
| 20260510091547 | 56 | 209 | 10.0 | 20.0 | 0.00 | 0.00 | 0.00 | 33 | 1014.5 |
| 20260510091032 | 56 | 187 | 12.0 | 20.0 | 0.00 | 0.00 | 0.00 | 33 | 1014.5 |
| 20260510090534 | 57 | 214 | 9.0 | 19.0 | 0.00 | 0.00 | 0.00 | 35 | 1014.5 |
| 20260510090051 | 56 | 191 | 10.0 | 22.0 | 0.00 | 0.00 | 0.00 | 36 | 1014.6 |
| 20260510085532 | 56 | 221 | 13.0 | 22.0 | 0.00 | 0.00 | 0.00 | 36 | 1014.7 |
| 20260510085034 | 56 | 228 | 12.0 | 20.0 | 0.00 | 0.00 | 0.00 | 31 | 1014.8 |
| 20260510084603 | 56 | 210 | 9.0 | 24.0 | 0.00 | 0.00 | 0.00 | 31 | 1014.8 |
| 20260510084037 | 55 | 178 | 15.0 | 24.0 | 0.00 | 0.00 | 0.00 | 31 | 1014.9 |
| 20260510083532 | 55 | 209 | 10.0 | 20.0 | 0.00 | 0.00 | 0.00 | 31 | 1015.0 |
| 20260510083042 | 55 | 211 | 12.0 | 20.0 | 0.00 | 0.00 | 0.00 | 39 | 1015.1 |
| 20260510082532 | 54 | 197 | 11.0 | 18.0 | 0.00 | 0.00 | 0.00 | 36 | 1015.1 |
| 20260510082032 | 54 | 205 | 10.0 | 23.0 | 0.00 | 0.00 | 0.00 | 37 | 1015.2 |
| 20260510081549 | 54 | 185 | 13.0 | 23.0 | 0.00 | 0.00 | 0.00 | 34 | 1015.3 |
| 20260510081034 | 55 | 189 | 11.0 | 19.0 | 0.00 | 0.00 | 0.00 | 33 | 1015.3 |
| 20260510080532 | 54 | 189 | 11.0 | 19.0 | 0.00 | 0.00 | 0.00 | 35 | 1015.4 |
| 20260510080038 | 54 | 215 | 9.0 | 17.0 | 0.00 | 0.00 | 0.00 | 37 | 1015.5 |
| 20260510075533 | 54 | 187 | 11.0 | 19.0 | 0.00 | 0.00 | 0.00 | 35 | 1015.6 |
| 20260510075033 | 54 | 235 | 10.0 | 19.0 | 0.00 | 0.00 | 0.00 | 39 | 1015.6 |
| 20260510074553 | 54 | 237 | 9.0 | 18.0 | 0.00 | 0.00 | 0.00 | 36 | 1015.7 |
| 20260510074035 | 54 | 190 | 8.0 | 17.0 | 0.00 | 0.00 | 0.00 | 41 | 1015.7 |
| 20260510073530 | 53 | 172 | 8.0 | 17.0 | 0.00 | 0.00 | 0.00 | 45 | 1015.8 |
| 20260510073044 | 52 | 211 | 11.0 | 17.0 | 0.00 | 0.00 | 0.00 | 44 | 1015.8 |
| 20260510072533 | 52 | 199 | 10.0 | 16.0 | 0.00 | 0.00 | 0.00 | 42 | 1015.9 |
| 20260510072036 | 52 | 180 | 10.0 | 16.0 | 0.00 | 0.00 | 0.00 | 41 | 1016.0 |
| 20260510071544 | 53 | 210 | 7.0 | 15.0 | 0.00 | 0.00 | 0.00 | 39 | 1016.1 |
| 20260510071033 | 52 | 210 | 8.0 | 15.0 | 0.00 | 0.00 | 0.00 | 42 | 1016.0 |
| 20260510070533 | 52 | 203 | 7.0 | 13.0 | 0.00 | 0.00 | 0.00 | 43 | 1016.0 |
| 20260510070046 | 51 | 191 | 8.0 | 15.0 | 0.00 | 0.00 | 0.00 | 46 | 1016.1 |
| 20260510065534 | 51 | 184 | 9.0 | 15.0 | 0.00 | 0.00 | 0.00 | 41 | 1016.1 |
| 20260510065032 | 51 | 218 | 5.0 | 14.0 | 0.00 | 0.00 | 0.00 | 43 | 1016.1 |
| 20260510064550 | 51 | 199 | 8.0 | 14.0 | 0.00 | 0.00 | 0.00 | 46 | 1016.2 |
| 20260510064032 | 50 | 203 | 9.0 | 15.0 | 0.00 | 0.00 | 0.00 | 43 | 1016.2 |
| 20260510063533 | 50 | 209 | 9.0 | 15.0 | 0.00 | 0.00 | 0.00 | 44 | 1016.3 |
| 20260510063048 | 51 | 208 | 6.0 | 11.0 | 0.00 | 0.00 | 0.00 | 43 | 1016.3 |
| 20260510062533 | 50 | 211 | 6.0 | 11.0 | 0.00 | 0.00 | 0.00 | 45 | 1016.4 |
| 20260510062035 | 50 | 209 | 7.0 | 11.0 | 0.00 | 0.00 | 0.00 | 47 | 1016.4 |
| 20260510061543 | 49 | 207 | 6.0 | 11.0 | 0.00 | 0.00 | 0.00 | 42 | 1016.5 |
| 20260510061036 | 49 | 184 | 4.0 | 12.0 | 0.00 | 0.00 | 0.00 | 47 | 1016.5 |
| 20260510060534 | 48 | 197 | 7.0 | 13.0 | 0.00 | 0.00 | 0.00 | 45 | 1016.5 |
| 20260510060039 | 48 | 193 | 7.0 | 13.0 | 0.00 | 0.00 | 0.00 | 47 | 1016.7 |
| 20260510055534 | 48 | 169 | 7.0 | 15.0 | 0.00 | 0.00 | 0.00 | 47 | 1016.7 |
| 20260510055032 | 48 | 165 | 6.0 | 15.0 | 0.00 | 0.00 | 0.00 | 48 | 1016.8 |
| 20260510054540 | 47 | 154 | 6.0 | 13.0 | 0.00 | 0.00 | 0.00 | 48 | 1016.8 |
| 20260510054033 | 47 | 158 | 7.0 | 13.0 | 0.00 | 0.00 | 0.00 | 50 | 1016.8 |
| 20260510053533 | 46 | 204 | 6.0 | 11.0 | 0.00 | 0.00 | 0.00 | 50 | 1016.9 |
| 20260510053040 | 45 | 189 | 6.0 | 14.0 | 0.00 | 0.00 | 0.00 | 51 | 1016.9 |
| 20260510052533 | 45 | 212 | 8.0 | 16.0 | 0.00 | 0.00 | 0.00 | 52 | 1017.1 |
| 20260510052034 | 44 | 197 | 10.0 | 16.0 | 0.00 | 0.00 | 0.00 | 51 | 1017.1 |
| 20260510051547 | 44 | 187 | 9.0 | 19.0 | 0.00 | 0.00 | 0.00 | 52 | 1017.2 |
| 20260510051032 | 44 | 181 | 10.0 | 20.0 | 0.00 | 0.00 | 0.00 | 51 | 1017.2 |
| 20260510050533 | 43 | 149 | 10.0 | 20.0 | 0.00 | 0.00 | 0.00 | 51 | 1017.3 |
| 20260510050044 | 43 | 182 | 8.0 | 15.0 | 0.00 | 0.00 | 0.00 | 52 | 1017.3 |
| 20260510045531 | 43 | 195 | 9.0 | 21.0 | 0.00 | 0.00 | 0.00 | 51 | 1017.4 |
| 20260510045033 | 43 | 184 | 9.0 | 21.0 | 0.00 | 0.00 | 0.00 | 52 | 1017.5 |
| 20260510044538 | 42 | 168 | 12.0 | 18.0 | 0.00 | 0.00 | 0.00 | 53 | 1017.5 |
| 20260510044034 | 42 | 166 | 9.0 | 19.0 | 0.00 | 0.00 | 0.00 | 52 | 1017.7 |
| 20260510043533 | 42 | 178 | 10.0 | 19.0 | 0.00 | 0.00 | 0.00 | 52 | 1017.7 |
| 20260510043043 | 41 | 174 | 9.0 | 16.0 | 0.00 | 0.00 | 0.00 | 52 | 1017.8 |
| 20260510042534 | 41 | 174 | 9.0 | 16.0 | 0.00 | 0.00 | 0.00 | 53 | 1017.8 |
| 20260510042033 | 41 | 191 | 8.0 | 15.0 | 0.00 | 0.00 | 0.00 | 53 | 1017.8 |
| 20260510041545 | 41 | 181 | 7.0 | 14.0 | 0.00 | 0.00 | 0.00 | 52 | 1017.9 |
| 20260510041033 | 41 | 206 | 6.0 | 14.0 | 0.00 | 0.00 | 0.00 | 52 | 1017.9 |
| 20260510040533 | 41 | 188 | 6.0 | 12.0 | 0.00 | 0.00 | 0.00 | 52 | 1018.0 |
| 20260510040056 | 40 | 193 | 7.0 | 14.0 | 0.00 | 0.00 | 0.00 | 53 | 1018.0 |
| 20260510035532 | 40 | 203 | 6.0 | 14.0 | 0.00 | 0.00 | 0.00 | 52 | 1018.0 |
| 20260510035034 | 40 | 189 | 7.0 | 13.0 | 0.00 | 0.00 | 0.00 | 53 | 1018.0 |
| 20260510034546 | 40 | 180 | 6.0 | 14.0 | 0.00 | 0.00 | 0.00 | 54 | 1018.1 |
| 20260510034034 | 39 | 174 | 6.0 | 14.0 | 0.00 | 0.00 | 0.00 | 55 | 1018.2 |
| 20260510033533 | 39 | 170 | 7.0 | 14.0 | 0.00 | 0.00 | 0.00 | 55 | 1018.3 |
| 20260510033048 | 39 | 173 | 6.0 | 12.0 | 0.00 | 0.00 | 0.00 | 55 | 1018.4 |
| 20260510032533 | 39 | 148 | 5.0 | 11.0 | 0.00 | 0.00 | 0.00 | 56 | 1018.5 |
| 20260510032034 | 39 | 144 | 5.0 | 10.0 | 0.00 | 0.00 | 0.00 | 56 | 1018.6 |
| 20260510031540 | 39 | 173 | 6.0 | 11.0 | 0.00 | 0.00 | 0.00 | 56 | 1018.6 |
| 20260510031033 | 39 | 177 | 4.0 | 11.0 | 0.00 | 0.00 | 0.00 | 56 | 1018.8 |
| 20260510030534 | 39 | 160 | 5.0 | 10.0 | 0.00 | 0.00 | 0.00 | 57 | 1018.9 |
| 20260510030047 | 38 | 166 | 5.0 | 10.0 | 0.00 | 0.00 | 0.00 | 58 | 1018.8 |
| 20260510025534 | 38 | 188 | 5.0 | 9.0 | 0.00 | 0.00 | 0.00 | 59 | 1018.9 |
| 20260510025033 | 37 | 149 | 3.0 | 9.0 | 0.00 | 0.00 | 0.00 | 60 | 1018.9 |
| 20260510024545 | 37 | 151 | 3.0 | 8.0 | 0.00 | 0.00 | 0.00 | 60 | 1018.9 |
| 20260510024034 | 37 | 180 | 4.0 | 9.0 | 0.00 | 0.00 | 0.00 | 61 | 1019.0 |
| 20260510023532 | 37 | 168 | 4.0 | 9.0 | 0.00 | 0.00 | 0.00 | 62 | 1019.2 |
| 20260510023042 | 36 | 176 | 3.0 | 9.0 | 0.00 | 0.00 | 0.00 | 62 | 1019.2 |
| 20260510022534 | 36 | 144 | 3.0 | 7.0 | 0.00 | 0.00 | 0.00 | 63 | 1019.3 |
| 20260510022035 | 36 | 155 | 3.0 | 7.0 | 0.00 | 0.00 | 0.00 | 64 | 1019.3 |
| 20260510021540 | 36 | 163 | 4.0 | 8.0 | 0.00 | 0.00 | 0.00 | 65 | 1019.4 |
| 20260510021032 | 35 | 169 | 4.0 | 9.0 | 0.00 | 0.00 | 0.00 | 66 | 1019.4 |
| 20260510020533 | 35 | 146 | 4.0 | 9.0 | 0.00 | 0.00 | 0.00 | 66 | 1019.5 |
| 20260510020045 | 34 | 159 | 4.0 | 8.0 | 0.00 | 0.00 | 0.00 | 67 | 1019.6 |
| 20260510015534 | 34 | 164 | 4.0 | 7.0 | 0.00 | 0.00 | 0.00 | 67 | 1019.6 |
| 20260510015033 | 34 | 152 | 3.0 | 6.0 | 0.00 | 0.00 | 0.00 | 66 | 1019.7 |
| 20260510014543 | 35 | 153 | 1.0 | 4.0 | 0.00 | 0.00 | 0.00 | 65 | 1019.7 |
| 20260510014033 | 35 | 137 | 2.0 | 7.0 | 0.00 | 0.00 | 0.00 | 64 | 1019.8 |
| 20260510013532 | 36 | 151 | 2.0 | 7.0 | 0.00 | 0.00 | 0.00 | 63 | 1019.8 |
| 20260510013044 | 37 | 155 | 3.0 | 7.0 | 0.00 | 0.00 | 0.00 | 62 | 1019.9 |
| 20260510012536 | 37 | 179 | 1.0 | 6.0 | 0.00 | 0.00 | 0.00 | 61 | 1019.9 |
| 20260510012035 | 38 | 163 | 2.0 | 7.0 | 0.00 | 0.00 | 0.00 | 61 | 1020.0 |
| 20260510011544 | 38 | 151 | 3.0 | 7.0 | 0.00 | 0.00 | 0.00 | 60 | 1020.0 |
| 20260510011032 | 38 | 155 | 3.0 | 7.0 | 0.00 | 0.00 | 0.00 | 60 | 1020.1 |
| 20260510010532 | 38 | 149 | 3.0 | 7.0 | 0.00 | 0.00 | 0.00 | 60 | 1020.2 |
| 20260510010041 | 38 | 159 | 2.0 | 6.0 | 0.00 | 0.00 | 0.00 | 60 | 1020.2 |
| 20260510005533 | 38 | 132 | 3.0 | 9.0 | 0.00 | 0.00 | 0.00 | 59 | 1020.3 |
| 20260510005033 | 38 | 162 | 3.0 | 9.0 | 0.00 | 0.00 | 0.00 | 59 | 1020.4 |
| 20260510004540 | 38 | 147 | 4.0 | 7.0 | 0.00 | 0.00 | 0.00 | 59 | 1020.5 |
| 20260510004032 | 38 | 157 | 3.0 | 8.0 | 0.00 | 0.00 | 0.00 | 59 | 1020.5 |
| 20260510003534 | 38 | 170 | 4.0 | 8.0 | 0.00 | 0.00 | 0.00 | 59 | 1020.5 |
| 20260510003048 | 38 | 173 | 4.0 | 8.0 | 0.00 | 0.00 | 0.00 | 59 | 1020.5 |
| 20260510002532 | 38 | 175 | 4.0 | 8.0 | 0.00 | 0.00 | 0.00 | 60 | 1020.4 |
| 20260510002033 | 38 | 172 | 4.0 | 8.0 | 0.00 | 0.00 | 0.00 | 60 | 1020.5 |
| 20260510001545 | 38 | 168 | 4.0 | 9.0 | 0.00 | 0.00 | 0.00 | 60 | 1020.4 |
| 20260510001033 | 38 | 162 | 4.0 | 9.0 | 0.00 | 0.00 | 0.00 | 60 | 1020.5 |
| 20260510000533 | 38 | 175 | 4.0 | 9.0 | 0.00 | 0.00 | 0.00 | 60 | 1020.6 |
| 20260510000059 | 38 | 187 | 4.0 | 7.0 | 0.00 | 0.00 | 0.00 | 59 | 1020.5 |
| 20260509235535 | 38 | 179 | 3.0 | 7.0 | 0.00 | 0.00 | 0.00 | 59 | 1020.5 |
| 20260509235033 | 38 | 172 | 4.0 | 7.0 | 0.00 | 0.00 | 0.00 | 59 | 1020.6 |
| 20260509234553 | 38 | 158 | 3.0 | 7.0 | 0.00 | 0.00 | 0.00 | 59 | 1020.6 |
| 20260509234032 | 38 | 153 | 4.0 | 9.0 | 0.00 | 0.00 | 0.00 | 59 | 1020.7 |
| 20260509233535 | 38 | 157 | 4.0 | 9.0 | 0.00 | 0.00 | 0.00 | 59 | 1020.7 |
| 20260509233046 | 38 | 166 | 4.0 | 8.0 | 0.00 | 0.00 | 0.00 | 60 | 1020.8 |
| 20260509232533 | 37 | 156 | 4.0 | 8.0 | 0.00 | 0.00 | 0.00 | 60 | 1020.8 |
| 20260509232033 | 37 | 162 | 4.0 | 7.0 | 0.00 | 0.00 | 0.00 | 60 | 1021.0 |
| 20260509231540 | 37 | 165 | 4.0 | 8.0 | 0.00 | 0.00 | 0.00 | 60 | 1021.1 |
| 20260509231033 | 37 | 174 | 4.0 | 8.0 | 0.00 | 0.00 | 0.00 | 60 | 1021.1 |
| 20260509230537 | 37 | 165 | 4.0 | 9.0 | 0.00 | 0.00 | 0.00 | 60 | 1021.1 |
| 20260509230042 | 37 | 173 | 4.0 | 9.0 | 0.00 | 0.00 | 0.00 | 60 | 1021.2 |
| 20260509225535 | 37 | 168 | 4.0 | 8.0 | 0.00 | 0.00 | 0.00 | 59 | 1021.3 |
| 20260509225032 | 38 | 159 | 4.0 | 8.0 | 0.00 | 0.00 | 0.00 | 59 | 1021.2 |
| 20260509224548 | 38 | 153 | 4.0 | 9.0 | 0.00 | 0.00 | 0.00 | 59 | 1021.3 |
| 20260509224034 | 38 | 170 | 5.0 | 9.0 | 0.00 | 0.00 | 0.00 | 59 | 1021.3 |
| 20260509223533 | 38 | 200 | 4.0 | 9.0 | 0.00 | 0.00 | 0.00 | 58 | 1021.4 |
| 20260509223043 | 39 | 174 | 5.0 | 10.0 | 0.00 | 0.00 | 0.00 | 59 | 1021.5 |
| 20260509222535 | 39 | 187 | 5.0 | 10.0 | 0.00 | 0.00 | 0.00 | 59 | 1021.5 |
| 20260509222036 | 39 | 199 | 6.0 | 10.0 | 0.00 | 0.00 | 0.00 | 58 | 1021.6 |
| 20260509221542 | 39 | 180 | 5.0 | 9.0 | 0.00 | 0.00 | 0.00 | 58 | 1021.7 |
| 20260509221033 | 39 | 186 | 4.0 | 9.0 | 0.00 | 0.00 | 0.00 | 58 | 1021.7 |
| 20260509220535 | 39 | 181 | 5.0 | 9.0 | 0.00 | 0.00 | 0.00 | 59 | 1021.8 |
| 20260509220039 | 39 | 186 | 5.0 | 8.0 | 0.00 | 0.00 | 0.00 | 58 | 1021.9 |
| 20260509215536 | 39 | 170 | 4.0 | 9.0 | 0.00 | 0.00 | 0.00 | 58 | 1021.9 |
| 20260509215035 | 39 | 166 | 5.0 | 9.0 | 0.00 | 0.00 | 0.00 | 58 | 1021.9 |
| 20260509214540 | 39 | 172 | 5.0 | 9.0 | 0.00 | 0.00 | 0.00 | 58 | 1022.1 |
| 20260509214035 | 39 | 162 | 4.0 | 10.0 | 0.00 | 0.00 | 0.00 | 58 | 1022.0 |
| 20260509213534 | 39 | 189 | 4.0 | 10.0 | 0.00 | 0.00 | 0.00 | 59 | 1022.1 |
| 20260509213041 | 39 | 191 | 5.0 | 9.0 | 0.00 | 0.00 | 0.00 | 59 | 1022.2 |
| 20260509212534 | 38 | 196 | 5.0 | 10.0 | 0.00 | 0.00 | 0.00 | 60 | 1022.3 |
| 20260509212034 | 38 | 201 | 6.0 | 10.0 | 0.00 | 0.00 | 0.00 | 61 | 1022.3 |
| 20260509211544 | 37 | 208 | 5.0 | 9.0 | 0.00 | 0.00 | 0.00 | 63 | 1022.3 |
| 20260509211033 | 36 | 207 | 5.0 | 8.0 | 0.00 | 0.00 | 0.00 | 65 | 1022.3 |
| 20260509210533 | 35 | 199 | 5.0 | 8.0 | 0.00 | 0.00 | 0.00 | 67 | 1022.4 |
| 20260509210049 | 34 | 207 | 5.0 | 8.0 | 0.00 | 0.00 | 0.00 | 69 | 1022.3 |
| 20260509205535 | 34 | 199 | 4.0 | 7.0 | 0.00 | 0.00 | 0.00 | 66 | 1022.3 |
| 20260509205030 | 34 | 205 | 3.0 | 6.0 | 0.00 | 0.00 | 0.00 | 65 | 1022.3 |
| 20260509204550 | 34 | 203 | 2.0 | 4.0 | 0.00 | 0.00 | 0.00 | 64 | 1022.3 |
| 20260509204031 | 35 | 216 | 1.0 | 3.0 | 0.00 | 0.00 | 0.00 | 64 | 1022.3 |
| 20260509203533 | 35 | 198 | 1.0 | 3.0 | 0.00 | 0.00 | 0.00 | 63 | 1022.2 |
| 20260509203040 | 35 | 198 | 0.0 | 3.0 | 0.00 | 0.00 | 0.00 | 63 | 1022.3 |
| 20260509202533 | 36 | 0 | 0.0 | 3.0 | 0.00 | 0.00 | 0.00 | 63 | 1022.3 |
| 20260509202035 | 36 | 0 | 0.0 | 3.0 | 0.00 | 0.00 | 0.00 | 61 | 1022.2 |
| 20260509201540 | 36 | 0 | 1.0 | 4.0 | 0.00 | 0.00 | 0.00 | 60 | 1022.3 |
| 20260509201033 | 37 | 163 | 2.0 | 4.0 | 0.00 | 0.00 | 0.00 | 59 | 1022.3 |
| 20260509200532 | 37 | 147 | 1.0 | 4.0 | 0.00 | 0.00 | 0.00 | 59 | 1022.3 |
| 20260509200049 | 38 | 155 | 1.0 | 4.0 | 0.00 | 0.00 | 0.00 | 58 | 1022.3 |
| 20260509195532 | 38 | 159 | 0.0 | 3.0 | 0.00 | 0.00 | 0.00 | 58 | 1022.2 |
| 20260509195035 | 39 | 0 | 0.0 | 3.0 | 0.00 | 0.00 | 0.00 | 57 | 1022.2 |